Location: Elkol
(41.7238°N, 110.6124°W)
Time: 06:49:39
(UTC+00:00)

Envisat - Pass Details

Date: 20 January 2022
Orbit: 764 x 765 km, 98.2° (Epoch: 21 May)

Event Time Altitude Azimuth Distance (km) Brightness Sun altitude
Rises 00:55:00 0° 218° (SW) 3,218 7.4 -6.5°
Reaches altitude 10° 00:58:55 10° 249° (WSW) 2,298 7.3 -7.2°
Maximum altitude 01:00:48 12° 271° (W) 2,165 6.6 -7.5°
Drops below altitude 10° 01:02:44 10° 294° (WNW) 2,308 6.2 -7.8°
Sets 01:06:40 0° 325° (NW) 3,237 6.5 -8.5°
